Solomon, AZ

9:02 PM MST on December 04, 2016 (GMT -0700)
Safford Regional

Weather History for KSAD - July, 2013

Change the Weather History Date:

Monday, July 22, 2013

  Actual Average Record
Temperature  
Mean Temperature 84 °F -  
Max Temperature 95 °F 96 °F 107 °F (2014)
Min Temperature 73 °F 68 °F 52 °F (1954)
Cooling Degree Days 19    
Growing Degree Days 34 (Base 50)    
Moisture  
Dew Point 61 °F    
Average Humidity 47    
Maximum Humidity 71    
Minimum Humidity 30    
Precipitation  
Precipitation 0.00 in - - ()
Sea Level Pressure  
Sea Level Pressure 29.82 in    
Wind  
Wind Speed 13 mph (WNW)    
Max Wind Speed 25 mph    
Max Gust Speed 33 mph    
Visibility 10 miles    
Events      
Averages and records for this station are not official NWS values.
T = Trace of Precipitation, MM = Missing Value Source: NWS Daily Summary

Daily Weather History Graph

Daily Weather History Graph

Search for Another Location

Airport or City:

Trip Planner

Search our weather history database for the weather conditions in past years. The results will help you decide how hot, cold, wet, or windy it might be!

Date:

Astronomy

Jul. 22, 2013 Rise Set
Actual Time 5:25 AM MST 7:23 PM MST
Civil Twilight 4:58 AM MST 7:51 PM MST
Nautical Twilight 4:24 AM MST 8:24 PM MST
Astronomical Twilight 3:48 AM MST 9:00 PM MST
Moon 7:17 PM MST (7/22) 5:22 AM MST (7/22)
Length of Visible Light 14h 53m
Length of Day
13h 58m
Full, 100% of the Moon is Illuminated
Jul 22
Full
Jul 29
Last Quarter
Aug 6
New
Aug 14
First Quarter
Aug 20
Full

Hourly Weather History & Observations

Time (MST) Temp. Heat Index Dew Point Humidity Pressure Visibility Wind Dir Wind Speed Gust Speed Precip Events Conditions
12:51 AM 78.1 °F - 64.0 °F 62% 29.82 in 10.0 mi NW 11.5 mph - N/A   Clear
1:51 AM 77.0 °F - 63.0 °F 62% 29.82 in 10.0 mi NW 11.5 mph - N/A   Clear
2:51 AM 75.0 °F - 64.0 °F 69% 29.81 in 10.0 mi WNW 8.1 mph - N/A   Clear
3:51 AM 73.9 °F - 64.0 °F 71% 29.82 in 10.0 mi NNW 9.2 mph - N/A   Clear
4:51 AM 75.0 °F - 61.0 °F 62% 29.82 in 10.0 mi NW 5.8 mph - N/A   Clear
5:51 AM 73.0 °F - 63.0 °F 71% 29.85 in 10.0 mi West 3.5 mph - N/A   Clear
6:51 AM 75.9 °F - 63.0 °F 64% 29.87 in 10.0 mi WNW 11.5 mph - N/A   Clear
7:51 AM 80.1 °F 81.2 °F 62.1 °F 54% 29.87 in 10.0 mi NW 13.8 mph - N/A   Clear
8:51 AM 82.9 °F 83.3 °F 61.0 °F 47% 29.87 in 10.0 mi WNW 18.4 mph 25.3 mph N/A   Clear
9:51 AM 86.0 °F 85.7 °F 60.1 °F 41% 29.88 in 10.0 mi WNW 16.1 mph 25.3 mph N/A   Clear
10:51 AM 89.1 °F 88.2 °F 59.0 °F 36% 29.86 in 10.0 mi WNW 18.4 mph 25.3 mph N/A   Clear
11:51 AM 91.0 °F 90.5 °F 60.1 °F 35% 29.84 in 10.0 mi WNW 13.8 mph 25.3 mph N/A   Clear
12:51 PM 91.9 °F 91.5 °F 60.1 °F 34% 29.81 in 10.0 mi WNW 18.4 mph 26.5 mph N/A   Partly Cloudy
1:51 PM 93.0 °F 92.3 °F 59.0 °F 32% 29.79 in 10.0 mi WNW 16.1 mph 25.3 mph N/A   Clear
2:51 PM 95.0 °F 94.4 °F 59.0 °F 30% 29.77 in 10.0 mi WNW 17.3 mph 24.2 mph N/A   Clear
3:51 PM 95.0 °F 94.4 °F 59.0 °F 30% 29.75 in 10.0 mi WNW 20.7 mph 29.9 mph N/A   Clear
4:51 PM 93.9 °F 93.2 °F 59.0 °F 31% 29.74 in 10.0 mi WNW 25.3 mph 32.2 mph N/A   Clear
5:23 PM 91.4 °F 90.7 °F 59.0 °F 34% 29.92 in 10.0 mi NNW 18.4 mph - N/A   Partly Cloudy
5:51 PM 91.9 °F 91.5 °F 60.1 °F 34% 29.76 in 10.0 mi NNW 17.3 mph 25.3 mph N/A   Scattered Clouds
6:51 PM 89.1 °F 88.8 °F 60.1 °F 38% 29.77 in 10.0 mi NW 19.6 mph 33.4 mph N/A   Clear
7:51 PM 86.0 °F 86.1 °F 61.0 °F 43% 29.77 in 10.0 mi WNW 20.7 mph - N/A   Clear
8:51 PM 84.0 °F 84.4 °F 61.0 °F 46% 29.79 in 10.0 mi NW 15.0 mph - N/A   Clear
9:51 PM 82.9 °F 83.3 °F 61.0 °F 47% 29.82 in 10.0 mi WNW 13.8 mph - N/A   Clear
10:51 PM 82.0 °F 83.1 °F 63.0 °F 52% 29.83 in 10.0 mi NW 17.3 mph - N/A   Clear
11:51 PM 81.0 °F 82.5 °F 64.0 °F 56% 29.83 in 10.0 mi NW 17.3 mph 24.2 mph N/A   Clear